TimeMST,TemperatureF,Dew PointF,Humidity,Sea Level PressureIn,VisibilityMPH,Wind Direction,Wind SpeedMPH,Gust SpeedMPH,PrecipitationIn,Events,Conditions,WindDirDegrees,DateUTC
12:56 AM,8.1,3.9,83,30.09,-9999.0,Calm,Calm,-,N/A,,Unknown,0,2013-02-18 07:56:00
1:56 AM,10.9,6.1,81,30.09,-9999.0,WNW,3.5,-,0.01,,Unknown,300,2013-02-18 08:56:00
2:56 AM,9.0,5.0,84,30.10,-9999.0,Calm,Calm,-,N/A,,Unknown,0,2013-02-18 09:56:00
3:56 AM,7.0,3.0,84,30.11,-9999.0,Calm,Calm,-,N/A,,Unknown,0,2013-02-18 10:56:00
4:56 AM,8.1,3.9,83,30.12,-9999.0,WNW,3.5,-,N/A,,Unknown,290,2013-02-18 11:56:00
5:56 AM,10.0,6.1,84,30.14,-9999.0,Variable,3.5,-,N/A,,Unknown,0,2013-02-18 12:56:00
6:56 AM,8.1,3.9,83,30.21,-9999.0,Calm,Calm,-,N/A,,Unknown,0,2013-02-18 13:56:00
7:56 AM,3.9,-0.0,84,30.25,-9999.0,Calm,Calm,-,N/A,,Unknown,0,2013-02-18 14:56:00
8:56 AM,12.0,8.1,84,30.23,-9999.0,East,3.5,-,N/A,,Unknown,100,2013-02-18 15:56:00
9:56 AM,12.0,6.1,77,30.22,-9999.0,ESE,3.5,-,N/A,,Unknown,120,2013-02-18 16:56:00
10:56 AM,12.9,6.1,74,30.22,-9999.0,Calm,Calm,-,N/A,,Unknown,0,2013-02-18 17:56:00
11:56 AM,18.0,8.1,65,30.17,-9999.0,ENE,4.6,-,0.01,,Unknown,70,2013-02-18 18:56:00
12:56 PM,21.0,5.0,50,30.13,-9999.0,Calm,Calm,-,N/A,,Unknown,0,2013-02-18 19:56:00
1:56 PM,21.0,5.0,50,30.11,-9999.0,Variable,3.5,-,N/A,,Unknown,0,2013-02-18 20:56:00
2:56 PM,21.0,3.9,48,30.13,-9999.0,Variable,3.5,-,N/A,,Unknown,0,2013-02-18 21:56:00
3:56 PM,21.0,3.9,48,30.14,-9999.0,Calm,Calm,-,N/A,,Unknown,0,2013-02-18 22:56:00
4:56 PM,18.0,3.9,54,30.15,-9999.0,Variable,3.5,-,N/A,,Unknown,0,2013-02-18 23:56:00
5:56 PM,12.9,3.0,65,30.17,-9999.0,Calm,Calm,-,N/A,,Unknown,0,2013-02-19 00:56:00
6:56 PM,3.0,-0.9,84,30.24,-9999.0,Calm,Calm,-,N/A,,Unknown,0,2013-02-19 01:56:00
7:56 PM,1.9,-2.9,80,30.27,-9999.0,Calm,Calm,-,N/A,,Unknown,0,2013-02-19 02:56:00
8:56 PM,-0.9,-6.0,79,30.23,-9999.0,Calm,Calm,-,N/A,,Unknown,0,2013-02-19 03:56:00
9:56 PM,-4.0,-8.0,83,30.25,-9999.0,Calm,Calm,-,N/A,,Unknown,0,2013-02-19 04:56:00
10:56 PM,-5.1,-9.9,80,30.24,-9999.0,Calm,Calm,-,N/A,,Unknown,0,2013-02-19 05:56:00
11:56 PM,-7.1,-11.9,79,30.21,-9999.0,Calm,Calm,-,N/A,,Unknown,0,2013-02-19 06:56:00